Location: Be?chatów
(51.3665°N, 19.3745°E)
Time: 07:28:53
(UTC+00:00)

Cosmos 2084 Rocket - Pass Details

Date: 19 May 2025
Orbit: 542 x 579 km, 62.8° (Epoch: 16 June)

Event Time Altitude Azimuth Distance (km) Brightness Sun altitude
Rises 20:16:57 0° 209° (SSW) 2,780 6.6 -12.2°
Reaches altitude 10° 20:19:14 10° 204° (SSW) 1,882 5.7 -12.4°
Maximum altitude 20:23:20 51° 129° (SE) 730 3.5 -12.7°
Drops below altitude 10° 20:27:27 10° 53° (NE) 1,877 6.1 -13.1°
Sets 20:29:43 0° 49° (NE) 2,771 7.0 -13.2°
